Location: Lane
(33.5226°N, 79.8788°W)
Time: 17:30:06
(UTC+00:00)

Transit 2A - Pass Details

Date: 04 October 2022
Orbit: 598 x 959 km, 66.7° (Epoch: 06 December)

Event Time Altitude Azimuth Distance (km) Brightness Sun altitude
Rises 03:14:59 0° 197° (SSW) 2,992 - -50.6°
Reaches altitude 10° 03:17:22 10° 194° (SSW) 2,038 - -51.0°
Maximum altitude 03:21:51 62° 114° (ESE) 693 - -51.7°
Drops below altitude 10° 03:26:08 10° 33° (NNE) 1,945 - -52.3°
Sets 03:28:22 0° 30° (NNE) 2,843 - -52.7°
